Regional Weather Roundup
Issued by NWS Goodland, KS

Home | Current Version | Previous Version | Graphics & Text | Print | Product List | Glossary On
Versions: 1 2 3 4 5 6 7 8 9 10 11 12 13 14 15 16 17 18 19 20 21 22 23 24 25 26 27 28 29 30 31 32 33 34 35 36 37 38 39 40 41 42 43 44 45 46 47 48 49 50
000
ASUS43 KGLD 250008
RWRGLD

GOODLAND FORECAST AREA HOURLY WEATHER ROUNDUP
NATIONAL WEATHER SERVICE GOODLAND KS
600 PM MDT FRI OCT 24 2014

...OFFICIAL OBSERVATIONS...

CITY           SKY/WX    TMP DP  RH WIND       PRES   REMARKS
GOODLAND KS    CLEAR     74  34  23 CALM      30.07S
HILL CITY KS   CLEAR     75  40  28 E3        30.00R
IMPERIAL NEB   CLEAR     72  37  28 SE5       30.04R
MCCOOK NEB     CLEAR     72  33  24 NW8       30.01R
AKRON CO       CLEAR     72  27  18 S5        30.13R
BURLINGTON CO  CLEAR     77  25  14 CALM      30.10S
LIMON CO       CLEAR     66  29  24 SE6       30.17R
$$

...UNOFFICIAL OBSERVATIONS...

CITY           SKY/WX    TMP DP  RH WIND       PRES   REMARKS
COLBY KS       CLEAR     75  37  25 N9        30.05R
NORTON KS      CLEAR     75  28  17 SW3       29.99R
SHARON SPRINGS   N/A     78  39  24 CALM        N/A
KIT CARSON CO    N/A     75  33  22 CALM        N/A
YUMA CO          N/A     73  30  20 CALM        N/A
$$



USA.gov is the U.S. government's official web portal to all federal, state and local government web resources and services.